Hill City, KS

4:53 PM CDT on March 25, 2017 (GMT -0500)
Hill City Municipal

Weather History for KHLC - May, 2013

Change the Weather History Date:

Thursday, May 30, 2013

  Actual Average Record
Temperature  
Mean Temperature 68 °F 67 °F  
Max Temperature 80 °F 80 °F 113 °F (1934)
Min Temperature 55 °F 55 °F 35 °F (1992)
Cooling Degree Days 1    
Growing Degree Days 16 (Base 50)    
Moisture  
Dew Point 53 °F    
Average Humidity 72    
Maximum Humidity 100    
Minimum Humidity 29    
Precipitation  
Precipitation 0.03 in 0.14 in 0.52 in (2005)
Month to date precipitation 2.12 3.66  
Year to date precipitation 4.34 8.38  
Sea Level Pressure  
Sea Level Pressure 29.59 in    
Wind  
Wind Speed 6 mph (WSW)    
Max Wind Speed 34 mph    
Max Gust Speed 52 mph    
Visibility 10 miles    
Events Rain , Thunderstorm    
T = Trace of Precipitation, MM = Missing Value Source: NWS Daily Summary

Daily Weather History Graph

Daily Weather History Graph

Search for Another Location

Airport or City:

Trip Planner

Search our weather history database for the weather conditions in past years. The results will help you decide how hot, cold, wet, or windy it might be!

Date:

Astronomy

May. 30, 2013 Rise Set
Actual Time 6:15 AM CDT 8:59 PM CDT
Civil Twilight 5:43 AM CDT 9:30 PM CDT
Nautical Twilight 5:04 AM CDT 10:10 PM CDT
Astronomical Twilight 4:19 AM CDT 10:55 PM CDT
Moon 1:02 AM CDT (5/30) 12:24 PM CDT (5/30)
Length of Visible Light 15h 47m
Length of Day
14h 43m
Waning Gibbous, 62% of the Moon is Illuminated
May 30
Waning Gibbous
May 31
Last Quarter
Jun 8
New
Jun 16
First Quarter
Jun 23
Full

Hourly Weather History & Observations

Time (CDT) Temp. Dew Point Humidity Pressure Visibility Wind Dir Wind Speed Gust Speed Precip Events Conditions
12:04 AM 59.0 °F 57.2 °F 94% 29.59 in 10.0 mi North 6.9 mph - N/A   Scattered Clouds
12:53 AM 59.0 °F 57.9 °F 96% 29.52 in 10.0 mi NE 3.5 mph - N/A   Partly Cloudy
1:53 AM 57.9 °F 55.9 °F 93% 29.52 in 10.0 mi SE 3.5 mph - N/A   Clear
2:25 AM 57.2 °F 57.2 °F 100% 29.59 in 10.0 mi Calm Calm - N/A   Scattered Clouds
2:53 AM 57.9 °F 57.0 °F 97% 29.54 in 10.0 mi SSE 3.5 mph - N/A   Partly Cloudy
3:53 AM 57.9 °F 57.0 °F 97% 29.53 in 10.0 mi SW 4.6 mph - N/A   Clear
4:53 AM 57.0 °F 55.9 °F 96% 29.54 in 9.0 mi West 4.6 mph - N/A   Partly Cloudy
5:40 AM 57.2 °F 57.2 °F 100% 29.61 in 8.0 mi South 3.5 mph - N/A   Mostly Cloudy
5:53 AM 57.9 °F 57.0 °F 97% 29.55 in 9.0 mi Calm Calm - N/A   Overcast
6:53 AM 57.0 °F 55.9 °F 96% 29.57 in 8.0 mi Calm Calm - N/A   Scattered Clouds
7:53 AM 59.0 °F 57.0 °F 93% 29.60 in 10.0 mi SW 5.8 mph - N/A   Clear
8:53 AM 63.0 °F 59.0 °F 87% 29.61 in 10.0 mi SW 11.5 mph - N/A   Clear
9:53 AM 68.0 °F 57.9 °F 70% 29.60 in 10.0 mi SW 10.4 mph - N/A   Clear
10:53 AM 71.1 °F 55.9 °F 59% 29.59 in 10.0 mi WSW 8.1 mph - N/A   Clear
11:53 AM 75.0 °F 51.1 °F 43% 29.59 in 10.0 mi West 12.7 mph 20.7 mph N/A   Clear
12:53 PM 77.0 °F 46.9 °F 34% 29.59 in 10.0 mi West 11.5 mph 19.6 mph N/A   Clear
1:53 PM 77.0 °F 42.1 °F 29% 29.57 in 10.0 mi West 4.6 mph - N/A   Partly Cloudy
2:53 PM 73.0 °F 43.0 °F 34% 29.59 in 10.0 mi West 23.0 mph 35.7 mph N/A Thunderstorm Mostly Cloudy
3:14 PM 60.8 °F 50.0 °F 68% 29.67 in 4.0 mi West 34.5 mph 51.8 mph 0.02 in Rain Light Rain
3:53 PM 64.9 °F 54.0 °F 68% 29.60 in 10.0 mi NNE 12.7 mph - 0.02 in   Mostly Cloudy
4:53 PM 73.9 °F 48.9 °F 41% 29.56 in 10.0 mi SE 9.2 mph - 0.01 in   Clear
5:53 PM 73.0 °F 48.9 °F 42% 29.57 in 10.0 mi SE 6.9 mph - N/A   Clear
6:53 PM 73.0 °F 48.0 °F 41% 29.63 in 10.0 mi NNW 3.5 mph - N/A   Scattered Clouds
7:15 PM 68.0 °F 48.2 °F 49% 29.65 in 10.0 mi North 8.1 mph - 0.00 in Rain Light Rain
7:53 PM 69.1 °F 48.9 °F 49% 29.62 in 10.0 mi NNE 6.9 mph - 0.00 in   Clear
8:53 PM 62.1 °F 51.1 °F 67% 29.63 in 10.0 mi East 5.8 mph - N/A   Clear
9:53 PM 57.9 °F 53.1 °F 84% 29.65 in 10.0 mi Calm Calm - N/A   Clear
10:53 PM 55.9 °F 52.0 °F 87% 29.68 in 10.0 mi Calm Calm - N/A   Clear
11:53 PM 55.9 °F 52.0 °F 87% 29.69 in 10.0 mi WSW 3.5 mph - N/A   Clear